GW4386 Weather Reports


Display with metric or nautical units.
time (UTC)temp
F
wind
direction
speed
MPH
gust
MPH
rain 1hr
in
rain 24hr
in
rain mn
in
humidity
%
barometer
mb
20260903074603 66 218 3.0 8.0 0.00 0.00 0.00 76 1019.3
20260903074058 65 150 1.0 8.0 0.00 0.00 0.00 77 1019.3
20260903073558 65 188 3.0 7.0 0.00 0.00 0.00 78 1019.4
20260903073105 64 205 4.0 8.0 0.00 0.00 0.00 78 1019.4
20260903072600 64 209 4.0 9.0 0.00 0.00 0.00 79 1019.4
20260903072057 64 193 4.0 9.0 0.00 0.00 0.00 79 1019.4
20260903071604 63 202 3.0 8.0 0.00 0.00 0.00 81 1019.4
20260903071058 63 258 2.0 8.0 0.00 0.00 0.00 82 1019.5
20260903070559 62 211 4.0 8.0 0.00 0.00 0.00 82 1019.4
20260903070100 62 204 3.0 6.0 0.00 0.00 0.00 84 1019.4
20260903065558 62 190 2.0 6.0 0.00 0.00 0.00 85 1019.5
20260903065057 61 117 2.0 6.0 0.00 0.00 0.00 85 1019.4
20260903064558 61 173 2.0 5.0 0.00 0.00 0.00 86 1019.5
20260903064058 60 153 1.0 5.0 0.00 0.00 0.00 88 1019.5
20260903063601 60 202 2.0 7.0 0.00 0.00 0.00 88 1019.6
20260903063058 59 173 3.0 7.0 0.00 0.00 0.00 88 1019.6
20260903062558 58 177 2.0 4.0 0.00 0.00 0.00 87 1019.6
20260903062058 58 171 1.0 5.0 0.00 0.00 0.00 86 1019.6
20260903061604 57 158 2.0 5.0 0.00 0.00 0.00 84 1019.6
20260903061057 56 174 2.0 6.0 0.00 0.00 0.00 84 1019.6
20260903060557 56 184 3.0 6.0 0.00 0.00 0.00 84 1019.6
20260903060100 55 178 3.0 6.0 0.00 0.00 0.00 84 1019.6
20260903055557 54 186 2.0 6.0 0.00 0.00 0.00 84 1019.7
20260903055057 54 180 1.0 5.0 0.00 0.00 0.00 84 1019.6
20260903054557 54 197 2.0 5.0 0.00 0.00 0.00 84 1019.6
20260903054056 53 186 3.0 5.0 0.00 0.00 0.00 84 1019.6
20260903053558 53 207 1.0 5.0 0.00 0.00 0.00 84 1019.6
20260903053108 52 176 2.0 5.0 0.00 0.00 0.00 84 1019.6
20260903052557 52 209 2.0 5.0 0.00 0.00 0.00 84 1019.6
20260903052056 52 193 2.0 4.0 0.00 0.00 0.00 85 1019.5
20260903051557 51 207 2.0 4.0 0.00 0.00 0.00 85 1019.5
20260903051056 51 176 1.0 3.0 0.00 0.00 0.00 85 1019.5
20260903050557 50 167 0.0 1.0 0.00 0.00 0.00 85 1019.5
20260903050056 50 108 0.0 0.0 0.00 0.00 0.00 85 1019.5
20260903045558 49 108 0.0 1.0 0.00 0.00 0.00 85 1019.6
20260903045057 49 198 0.0 1.0 0.00 0.00 0.00 86 1019.5
20260903044605 49 176 0.0 1.0 0.00 0.00 0.00 86 1019.6
20260903044058 49 154 0.0 1.0 0.00 0.00 0.00 86 1019.6
20260903043556 48 183 0.0 1.0 0.00 0.00 0.00 86 1019.6
20260903043059 48 150 0.0 1.0 0.00 0.00 0.00 86 1019.6
20260903042557 48 167 0.0 2.0 0.00 0.00 0.00 86 1019.6
20260903042058 48 183 0.0 2.0 0.00 0.00 0.00 86 1019.6
20260903041559 48 198 0.0 2.0 0.00 0.00 0.00 86 1019.6
20260903041057 48 196 0.0 2.0 0.00 0.00 0.00 86 1019.7
20260903040558 48 215 0.0 2.0 0.00 0.00 0.00 86 1019.7
20260903040106 48 123 0.0 0.0 0.00 0.00 0.00 86 1019.7
20260903035557 48 140 0.0 0.0 0.00 0.00 0.00 86 1019.7
20260903035057 48 214 0.0 1.0 0.00 0.00 0.00 86 1019.7
20260903034557 48 205 0.0 1.0 0.00 0.00 0.00 86 1019.8
20260903034058 48 257 0.0 0.0 0.00 0.00 0.00 86 1019.7
20260903033557 48 135 0.0 0.0 0.00 0.00 0.00 86 1019.8
20260903033057 49 135 0.0 0.0 0.00 0.00 0.00 86 1019.8
20260903032558 49 209 0.0 1.0 0.00 0.00 0.00 87 1019.9
20260903032058 49 222 0.0 2.0 0.00 0.00 0.00 87 1019.9
20260903031604 49 217 0.0 1.0 0.00 0.00 0.00 87 1019.9
20260903031057 48 157 0.0 0.0 0.00 0.00 0.00 87 1019.9
20260903030556 49 75 0.0 0.0 0.00 0.00 0.00 87 1019.9
20260903030113 49 75 0.0 0.0 0.00 0.00 0.00 87 1019.9
20260903025556 49 75 0.0 0.0 0.00 0.00 0.00 87 1019.9
20260903025056 49 75 0.0 0.0 0.00 0.00 0.00 87 1019.9
20260903024557 49 113 0.0 0.0 0.00 0.00 0.00 87 1019.9
20260903024057 49 113 0.0 0.0 0.00 0.00 0.00 87 1020.0
20260903023556 49 149 0.0 1.0 0.00 0.00 0.00 87 1020.0
20260903023058 49 157 0.0 1.0 0.00 0.00 0.00 87 1020.0
20260903022600 49 158 0.0 2.0 0.00 0.00 0.00 87 1020.0
20260903022056 49 192 0.0 2.0 0.00 0.00 0.00 87 1020.1
20260903021556 49 200 0.0 1.0 0.00 0.00 0.00 87 1020.1
20260903021057 49 223 0.0 0.0 0.00 0.00 0.00 87 1020.1
20260903020557 49 218 0.0 0.0 0.00 0.00 0.00 87 1020.1
20260903020058 49 218 0.0 0.0 0.00 0.00 0.00 87 1020.0
20260903015556 49 136 0.0 0.0 0.00 0.00 0.00 87 1020.1
20260903015055 49 205 0.0 0.0 0.00 0.00 0.00 87 1020.1
20260903014609 49 209 0.0 0.0 0.00 0.00 0.00 87 1020.1
20260903014058 50 173 0.0 0.0 0.00 0.00 0.00 87 1020.1
20260903013600 50 147 0.0 0.0 0.00 0.00 0.00 87 1020.1
20260903013102 50 218 0.0 0.0 0.00 0.00 0.00 87 1020.1
20260903012556 50 137 0.0 0.0 0.00 0.00 0.00 87 1020.0
20260903012056 50 137 0.0 0.0 0.00 0.00 0.00 87 1020.1
20260903012003 50 137 0.0 1.0 0.00 0.00 0.00 87 1020.1
20260903011608 50 126 0.0 1.0 0.00 0.00 0.00 87 1020.1
20260903011057 50 151 0.0 2.0 0.00 0.00 0.00 87 1020.2
20260903010556 50 237 0.0 2.0 0.00 0.00 0.00 87 1020.2
20260903005557 50 121 0.0 0.0 0.00 0.00 0.00 87 1020.1
20260903005058 50 133 0.0 1.0 0.00 0.00 0.00 87 1020.1
20260903004556 50 209 0.0 2.0 0.00 0.00 0.00 88 1020.2
20260903004057 50 207 0.0 0.0 0.00 0.00 0.00 88 1020.1
20260903003556 50 212 0.0 0.0 0.00 0.00 0.00 88 1020.1
20260903003101 50 213 0.0 0.0 0.00 0.00 0.00 88 1020.1
20260903002557 50 213 0.0 0.0 0.00 0.00 0.00 88 1020.1
20260903002057 50 212 0.0 0.0 0.00 0.00 0.00 88 1020.1
20260903001559 51 170 0.0 0.0 0.00 0.00 0.00 88 1020.0
20260903001100 51 170 0.0 0.0 0.00 0.00 0.00 88 1020.0
20260903000556 51 78 0.0 0.0 0.00 0.00 0.00 88 1020.0
20260903000056 51 78 0.0 0.0 0.00 0.00 0.00 88 1020.0
20260902235557 51 133 0.0 1.0 0.00 0.00 0.00 88 1020.0
20260902235057 51 116 0.0 1.0 0.00 0.00 0.00 88 1020.0
20260902234556 51 239 0.0 0.0 0.00 0.00 0.00 88 1020.0
20260902234057 51 239 0.0 0.0 0.00 0.00 0.00 88 1020.0
20260902233557 51 225 0.0 0.0 0.00 0.00 0.00 88 1020.0
20260902233056 52 132 0.0 1.0 0.00 0.00 0.00 88 1020.0
20260902232556 52 225 0.0 1.0 0.00 0.00 0.00 88 1020.0
20260902232057 52 209 0.0 1.0 0.00 0.00 0.00 88 1020.0
20260902231609 52 202 0.0 0.0 0.00 0.00 0.00 88 1020.0
20260902231056 52 196 0.0 0.0 0.00 0.00 0.00 88 1020.0
20260902230559 52 196 0.0 0.0 0.00 0.00 0.00 88 1020.0
20260902230056 52 196 0.0 0.0 0.00 0.00 0.00 88 1020.0
20260902225558 52 196 0.0 0.0 0.00 0.00 0.00 88 1020.0
20260902225100 53 196 0.0 0.0 0.00 0.00 0.00 88 1020.0
20260902224606 53 218 0.0 0.0 0.00 0.00 0.00 88 1020.0
20260902224102 53 218 0.0 0.0 0.00 0.00 0.00 88 1020.0
20260902223558 53 212 0.0 0.0 0.00 0.00 0.00 88 1020.0
20260902223059 53 134 0.0 0.0 0.00 0.00 0.00 88 1020.1
20260902222601 53 134 0.0 0.0 0.00 0.00 0.00 88 1020.2
20260902222058 54 134 0.0 0.0 0.00 0.00 0.00 88 1020.2
20260902221619 54 134 0.0 0.0 0.00 0.00 0.00 88 1020.1
20260902221102 54 134 0.0 1.0 0.00 0.00 0.00 88 1020.1
20260902220558 54 202 0.0 1.0 0.00 0.00 0.00 88 1020.2
20260902215559 54 47 0.0 0.0 0.00 0.00 0.00 88 1020.1
20260902215058 55 47 0.0 0.0 0.00 0.00 0.00 88 1020.1
20260902214601 55 47 0.0 0.0 0.00 0.00 0.00 88 1020.3
20260902214105 55 176 0.0 0.0 0.00 0.00 0.00 88 1020.1
20260902213559 55 176 0.0 0.0 0.00 0.00 0.00 88 1020.2
20260902213058 55 198 0.0 0.0 0.00 0.00 0.00 89 1020.2
20260902212558 55 228 0.0 0.0 0.00 0.00 0.00 88 1020.2
20260902212100 55 218 0.0 0.0 0.00 0.00 0.00 88 1020.2
20260902211600 55 211 0.0 0.0 0.00 0.00 0.00 88 1020.2
20260902211058 55 234 0.0 0.0 0.00 0.00 0.00 89 1020.2
20260902210602 56 234 0.0 0.0 0.00 0.00 0.00 89 1020.2
20260902210058 55 234 0.0 0.0 0.00 0.00 0.00 89 1020.2
20260902205603 55 234 0.0 0.0 0.00 0.00 0.00 89 1020.1
20260902205058 55 234 0.0 0.0 0.00 0.00 0.00 89 1020.1
20260902204559 56 234 0.0 0.0 0.00 0.00 0.00 89 1020.1
20260902204058 56 255 0.0 0.0 0.00 0.00 0.00 88 1020.2
20260902203559 56 78 0.0 0.0 0.00 0.00 0.00 88 1020.2
20260902203059 56 78 0.0 0.0 0.00 0.00 0.00 88 1020.1
20260902202559 56 237 0.0 0.0 0.00 0.00 0.00 88 1020.2
20260902202501 56 237 0.0 0.0 0.00 0.00 0.00 88 1020.1
20260902202101 57 237 0.0 1.0 0.00 0.00 0.00 88 1020.2
20260902201601 57 195 0.0 1.0 0.00 0.00 0.00 88 1020.2
20260902201058 57 213 0.0 0.0 0.00 0.00 0.00 88 1020.2
20260902200558 57 213 0.0 0.0 0.00 0.00 0.00 88 1020.2
20260902200058 57 213 0.0 0.0 0.00 0.00 0.00 88 1020.3
20260902200002 57 213 0.0 0.0 0.00 0.00 0.00 88 1020.3
20260902195559 58 213 0.0 0.0 0.00 0.01 0.00 88 1020.3
20260902195100 58 213 0.0 0.0 0.00 0.01 0.00 88 1020.3
20260902194558 58 213 0.0 0.0 0.00 0.01 0.00 88 1020.3
20260902194059 58 213 0.0 1.0 0.00 0.01 0.00 88 1020.3
20260902193602 58 216 0.0 1.0 0.00 0.01 0.00 88 1020.3
20260902193107 58 142 0.0 0.0 0.00 0.01 0.00 88 1020.3
20260902192559 58 142 0.0 0.0 0.00 0.01 0.00 88 1020.4
20260902192059 59 198 0.0 0.0 0.00 0.01 0.00 88 1020.4
20260902191631 59 198 0.0 0.0 0.00 0.01 0.00 88 1020.4
20260902191100 59 204 0.0 0.0 0.00 0.01 0.00 88 1020.4
20260902190559 59 221 0.0 0.0 0.00 0.01 0.00 87 1020.4
20260902190100 59 207 0.0 0.0 0.00 0.01 0.00 87 1020.5
20260902185559 59 218 0.0 0.0 0.00 0.01 0.00 87 1020.5
20260902185102 59 218 0.0 1.0 0.00 0.01 0.00 87 1020.4
20260902184559 59 227 0.0 1.0 0.00 0.01 0.00 87 1020.4
20260902184058 59 207 0.0 0.0 0.00 0.01 0.00 87 1020.4
20260902183602 59 192 0.0 0.0 0.00 0.01 0.00 86 1020.4
20260902183122 59 171 0.0 0.0 0.00 0.01 0.00 86 1020.3
20260902182600 60 171 0.0 0.0 0.00 0.01 0.00 86 1020.4
20260902182058 60 306 0.0 0.0 0.00 0.01 0.00 86 1020.3
20260902181611 60 301 0.0 0.0 0.00 0.01 0.00 85 1020.3
20260902181100 60 311 0.0 0.0 0.00 0.01 0.00 85 1020.2
20260902180558 60 311 0.0 0.0 0.00 0.01 0.00 85 1020.2
20260902175558 61 158 0.0 1.0 0.00 0.01 0.00 84 1020.1
20260902175059 61 211 0.0 1.0 0.00 0.01 0.00 84 1020.2
20260902174559 61 214 0.0 1.0 0.00 0.01 0.00 83 1020.2
20260902174059 62 214 0.0 1.0 0.00 0.01 0.00 83 1020.2
20260902173558 62 205 0.0 0.0 0.00 0.01 0.00 82 1020.2
20260902173112 62 214 0.0 0.0 0.00 0.01 0.00 81 1020.2
20260902172559 63 220 0.0 1.0 0.00 0.01 0.00 81 1020.1
20260902172058 63 204 0.0 1.0 0.00 0.01 0.00 80 1020.2
20260902171604 63 235 0.0 0.0 0.00 0.01 0.00 80 1020.2
20260902171058 64 226 0.0 2.0 0.00 0.01 0.00 78 1020.2
20260902170602 65 225 0.0 2.0 0.00 0.01 0.00 76 1020.2
20260902170058 65 232 0.0 3.0 0.00 0.01 0.00 75 1020.2
20260902165559 66 215 1.0 3.0 0.00 0.02 0.00 72 1020.2
20260902165059 66 242 0.0 3.0 0.00 0.02 0.00 73 1020.2
20260902164603 66 253 0.0 3.0 0.00 0.02 0.00 72 1020.2
20260902164058 67 223 0.0 3.0 0.00 0.02 0.00 70 1020.2
20260902163558 67 225 0.0 3.0 0.00 0.02 0.00 70 1020.1
20260902163102 67 246 0.0 5.0 0.00 0.02 0.00 68 1020.1
20260902162558 67 214 0.0 5.0 0.00 0.02 0.00 67 1020.2
20260902162058 68 199 1.0 6.0 0.00 0.02 0.00 67 1020.1
20260902161600 68 254 2.0 6.0 0.00 0.02 0.00 65 1020.1
20260902161059 68 253 1.0 7.0 0.00 0.02 0.00 65 1020.1
20260902160557 68 220 2.0 6.0 0.00 0.02 0.00 66 1020.1
20260902160108 68 218 1.0 6.0 0.00 0.02 0.00 66 1020.1
20260902155558 68 228 2.0 4.0 0.00 0.08 0.00 66 1020.1
20260902155059 68 239 1.0 8.0 0.00 0.08 0.00 66 1020.1
20260902154559 68 180 2.0 8.0 0.00 0.08 0.00 65 1020.2
20260902154103 68 221 3.0 7.0 0.00 0.08 0.00 65 1020.2
20260902153558 68 223 2.0 8.0 0.00 0.08 0.00 65 1020.3
20260902153059 68 200 2.0 6.0 0.00 0.08 0.00 65 1020.3
20260902152558 68 209 1.0 5.0 0.00 0.08 0.00 64 1020.3
20260902152059 68 220 1.0 4.0 0.00 0.08 0.00 65 1020.2
20260902151558 68 290 1.0 7.0 0.00 0.08 0.00 64 1020.4
20260902151059 68 233 4.0 7.0 0.00 0.08 0.00 63 1020.3
20260902150558 69 198 2.0 7.0 0.00 0.08 0.00 64 1020.4
20260902150058 69 225 3.0 7.0 0.00 0.08 0.00 64 1020.5
20260902145558 69 267 2.0 8.0 0.00 0.09 0.00 64 1020.4
20260902145059 69 271 3.0 8.0 0.00 0.09 0.00 63 1020.4
20260902144558 69 274 1.0 7.0 0.00 0.09 0.00 65 1020.4
20260902144058 69 297 3.0 7.0 0.00 0.09 0.00 64 1020.4
20260902143558 69 237 2.0 8.0 0.00 0.09 0.00 65 1020.5
20260902143504 69 303 3.0 8.0 0.00 0.09 0.00 65 1020.5
20260902143059 69 323 4.0 9.0 0.00 0.09 0.00 64 1020.5
20260902142558 69 232 4.0 9.0 0.00 0.09 0.00 65 1020.4
20260902142059 69 246 1.0 7.0 0.00 0.09 0.00 65 1020.5
20260902141558 70 269 2.0 7.0 0.00 0.09 0.00 64 1020.4
20260902141059 70 246 1.0 7.0 0.00 0.09 0.00 65 1020.5
20260902140558 69 294 2.0 7.0 0.00 0.09 0.00 64 1020.5
20260902140100 70 213 2.0 9.0 0.00 0.09 0.00 62 1020.5
20260902135557 69 276 4.0 9.0 0.00 0.09 0.00 61 1020.5
20260902135057 70 311 3.0 11.0 0.00 0.09 0.00 62 1020.4
20260902134558 70 244 5.0 10.0 0.00 0.09 0.00 61 1020.4
20260902134057 71 215 5.0 18.0 0.00 0.09 0.00 59 1020.4
20260902133558 71 163 9.0 18.0 0.00 0.09 0.00 58 1020.4
20260902133057 71 225 4.0 10.0 0.00 0.09 0.00 61 1020.3
20260902132558 69 225 4.0 12.0 0.00 0.09 0.00 61 1020.4
20260902132057 69 241 5.0 12.0 0.00 0.09 0.00 62 1020.5
20260902131557 70 252 3.0 10.0 0.00 0.09 0.00 61 1020.4
20260902131058 71 241 3.0 10.0 0.00 0.09 0.00 60 1020.4
20260902130559 71 296 7.0 14.0 0.00 0.09 0.00 61 1020.4
20260902130056 71 227 4.0 12.0 0.00 0.09 0.00 61 1020.4
20260902125557 71 280 2.0 10.0 0.00 0.09 0.00 64 1020.3
20260902125101 70 292 4.0 10.0 0.00 0.09 0.00 64 1020.4
20260902124557 70 306 3.0 8.0 0.00 0.09 0.00 64 1020.5
20260902124100 70 334 3.0 7.0 0.00 0.09 0.00 66 1020.5
20260902123557 69 299 3.0 11.0 0.00 0.09 0.00 65 1020.5
20260902123104 69 304 4.0 11.0 0.00 0.09 0.00 65 1020.6
20260902122601 69 287 4.0 10.0 0.00 0.09 0.00 66 1020.7
20260902122057 69 225 5.0 10.0 0.00 0.09 0.00 66 1020.7
20260902121557 69 257 2.0 12.0 0.00 0.09 0.00 68 1020.7
20260902121058 67 240 3.0 9.0 0.00 0.09 0.00 71 1020.9
20260902120558 67 275 3.0 10.0 0.00 0.09 0.00 71 1021.0
20260902120058 68 204 5.0 11.0 0.00 0.09 0.00 70 1021.1
20260902115558 69 327 2.0 9.0 0.00 0.09 0.00 70 1021.0
20260902115058 68 10 3.0 9.0 0.00 0.09 0.00 71 1021.0
20260902114558 68 301 2.0 11.0 0.00 0.09 0.00 68 1021.0
20260902114059 68 272 3.0 11.0 0.00 0.09 0.00 67 1021.0
20260902113557 68 202 4.0 12.0 0.00 0.09 0.00 68 1021.0
20260902113104 69 227 8.0 12.0 0.00 0.09 0.00 66 1021.1
20260902112559 69 205 6.0 17.0 0.00 0.09 0.00 68 1021.1
20260902112058 68 198 7.0 12.0 0.00 0.09 0.00 70 1021.1
20260902111605 68 283 4.0 10.0 0.00 0.09 0.00 70 1021.0
20260902111059 68 288 6.0 10.0 0.00 0.09 0.00 69 1021.2
20260902110558 69 228 4.0 9.0 0.00 0.09 0.00 69 1021.2
20260902110059 69 229 5.0 10.0 0.00 0.09 0.00 68 1021.2
20260902105558 68 300 5.0 11.0 0.00 0.09 0.00 69 1021.3
20260902105059 68 227 4.0 11.0 0.00 0.09 0.00 69 1021.2
20260902104612 69 299 1.0 8.0 0.00 0.09 0.00 71 1021.2
20260902104059 68 256 4.0 11.0 0.00 0.09 0.00 71 1021.2
20260902103557 67 239 6.0 11.0 0.00 0.09 0.00 71 1021.3
20260902103058 67 250 4.0 9.0 0.00 0.09 0.00 72 1021.3
20260902102558 67 292 2.0 10.0 0.00 0.09 0.00 74 1021.3
20260902102058 65 199 5.0 15.0 0.00 0.09 0.00 75 1021.3
20260902101558 65 219 3.0 15.0 0.00 0.09 0.00 76 1021.3
20260902101058 65 238 3.0 10.0 0.00 0.09 0.00 77 1021.3
20260902100559 65 220 2.0 10.0 0.00 0.09 0.00 76 1021.2
20260902100058 65 233 3.0 13.0 0.00 0.09 0.00 76 1021.3
20260902095559 65 286 4.0 13.0 0.00 0.09 0.00 76 1021.2
20260902095059 65 235 5.0 12.0 0.00 0.09 0.00 75 1021.2
20260902094559 65 269 7.0 12.0 0.00 0.09 0.00 76 1021.3
20260902094058 65 265 3.0 12.0 0.00 0.09 0.00 77 1021.3
20260902093602 65 238 7.0 12.0 0.00 0.09 0.00 77 1021.4
20260902093104 65 217 5.0 11.0 0.00 0.09 0.00 76 1021.4
20260902092557 64 211 5.0 11.0 0.00 0.09 0.00 77 1021.3
20260902092100 64 195 4.0 11.0 0.00 0.09 0.00 79 1021.4
20260902091600 63 310 1.0 10.0 0.00 0.09 0.00 81 1021.3
20260902091058 63 274 2.0 12.0 0.00 0.09 0.00 80 1021.3
20260902090558 64 296 5.0 12.0 0.00 0.09 0.00 79 1021.3
20260902090111 65 306 3.0 11.0 0.00 0.09 0.00 79 1021.2
20260902085557 64 215 5.0 11.0 0.00 0.09 0.00 80 1021.2
20260902085057 64 312 4.0 14.0 0.00 0.09 0.00 80 1021.2
20260902084600 63 184 6.0 15.0 0.00 0.09 0.00 80 1021.3
20260902084056 63 236 6.0 15.0 0.00 0.09 0.00 81 1021.3
20260902083557 63 246 4.0 10.0 0.00 0.09 0.00 81 1021.2
20260902083056 63 213 4.0 10.0 0.00 0.09 0.00 81 1021.2
20260902082600 63 290 3.0 12.0 0.00 0.09 0.00 80 1021.2
20260902082058 63 292 6.0 12.0 0.00 0.09 0.00 81 1021.1
20260902081557 63 221 4.0 16.0 0.00 0.09 0.00 80 1021.0
20260902081059 63 225 7.0 16.0 0.00 0.09 0.00 80 1021.1
20260902080557 63 199 7.0 11.0 0.00 0.09 0.00 81 1021.0
20260902080058 63 280 5.0 12.0 0.00 0.09 0.00 81 1021.0
20260902075557 63 227 5.0 12.0 0.00 0.09 0.00 82 1020.9
20260902075102 63 189 4.0 11.0 0.00 0.09 0.00 84 1020.8